[[{"header":{"parameterUnit":"m.s-1","parameterCategory":1,"la1":30.2991,"la2":30.254,"lo1":-89.0895,"lo2":-89.0444,"dy":0.0017,"dx":0.0017,"nx":28,"ny":28,"refTime":"2025-07-09T03:00:00:Z","depth":0,"parameterNumber":2,"parameterNumberName":"U-component_of_WINDS"},"data":[0,0,0,0,0,0,0,0,0,0,0,0,0,0,0,0,0,0,0,0,0,0,0,0,0,0,0,0,0,0,0,0,0,0,0,0,0,0,0,0,0,0,0,0,0,0,0,0,0,0,0,0,0,0,0,0,0,0,5.6902,5.6903,0,5.7038,5.7039,5.7041,5.6936,5.6931,5.6927,5.6923,5.7063,5.7071,5.7079,0,0,0,0,0,0,0,0,0,0,0,0,0,5.6551,5.6558,5.6902,5.6903,5.6905,5.7038,5.704,5.7041,5.6937,5.6931,5.6926,5.6921,5.7061,5.707,5.708,0,0,0,0,0,0,0,0,0,0,0,0,0,5.6697,5.656,5.6901,5.6869,5.6867,5.7037,5.704,5.7042,5.6938,5.6931,5.6924,5.6918,5.7058,5.7069,5.7081,5.7291,0,0,5.7117,5.7123,0,0,0,0,0,0,0,0,5.6689,5.671,5.6872,5.6871,5.687,5.6963,5.6967,5.7125,5.694,5.6911,5.6923,5.6915,5.7035,5.7049,5.7089,5.7297,5.7303,5.7118,5.7126,5.7131,5.7134,0,0,0,0,0,0,0,5.6679,5.6703,5.6955,5.6874,5.6873,5.6847,5.6861,5.6997,5.701,5.6913,5.6906,5.6923,5.7034,5.7078,5.7092,5.7305,5.7118,5.7129,5.7136,5.7141,5.769,5.7697,0,0,0,0,0,0,5.6672,5.6696,5.6951,5.696,5.6761,5.6859,5.6874,5.694,5.7008,5.7012,5.6929,5.6918,5.7061,5.7078,5.7096,5.7345,5.7131,5.7142,5.7149,5.7683,5.7692,5.77,0,0,0,0,0,0,5.6664,5.6695,5.6946,5.6826,5.6855,5.6872,5.6947,5.6946,5.699,5.702,5.7022,5.6972,5.7056,5.708,5.7243,5.7348,5.7147,5.7158,5.7674,5.7685,5.7696,5.7844,0,0,0,0,0,0,5.6655,5.6693,5.6773,5.6828,5.6862,5.709,5.6954,5.6954,5.7011,5.6998,5.7061,5.7065,5.7053,5.7225,5.7255,5.7361,5.7168,5.7665,5.7679,5.7692,5.783,5.7859,5.7884,0,0,0,0,0,5.6643,5.681,5.6778,5.6809,5.6963,5.7096,5.7116,5.7098,5.702,5.71,5.7119,5.7063,5.7332,5.7243,5.7275,5.7386,5.7658,5.7675,5.7691,5.7818,5.7853,5.7883,0,0,0,0,0,0,5.6768,5.6817,5.6782,5.6972,5.7031,5.7078,5.7179,5.7137,5.7219,5.7204,5.7179,5.7194,5.7365,5.7392,5.7292,5.7592,5.7482,5.7506,5.7568,5.7602,5.7628,5.7617,5.7177,0,0,0,0,0,5.6818,5.6922,5.6959,5.7124,5.7155,5.7163,5.722,5.7202,5.7261,5.7286,5.7316,5.7377,5.7475,5.754,5.7632,5.7834,5.7845,5.7926,5.7953,5.7975,5.7996,5.8102,5.8138,5.7755,5.7754,5.7754,0,0,5.6922,5.6961,5.7029,5.715,5.7193,5.7302,5.7184,5.7304,5.7384,5.7304,5.7459,5.7484,5.755,5.7733,5.7815,5.7761,5.8104,5.7996,5.8014,5.8022,5.8123,5.8159,5.8192,5.7766,5.7764,5.7762,0,0,5.7166,5.7207,5.7348,5.7393,5.746,5.7464,5.7498,5.7552,5.7565,5.772,5.7662,5.7757,5.7927,5.7975,5.8023,5.8285,5.8235,5.8316,5.8456,5.856,5.859,5.8617,5.8709,5.8742,5.8336,5.8337,5.8337,0,5.7287,5.7447,5.7425,5.7549,5.7604,5.7536,5.7678,5.7723,5.7817,5.7856,5.7794,5.8005,5.8045,5.8237,5.8301,5.8342,5.8379,5.8307,5.8588,5.8614,5.8639,5.8726,5.8761,5.8346,5.8345,5.8344,5.8343,0,5.7591,5.7704,5.781,5.7901,5.7967,5.81,5.8098,5.8168,5.8143,5.8154,5.8312,5.8357,5.8456,5.8501,5.8479,5.869,5.8654,5.8591,5.848,5.8685,5.8766,5.88,5.8359,5.8356,5.8353,5.8351,0,0,5.7918,5.7995,5.8034,5.8074,5.8142,5.8229,5.8358,5.8454,5.8514,5.8581,5.8688,5.8833,5.8774,5.8828,5.881,5.8902,5.9105,5.8828,5.8829,5.8876,5.9338,5.9383,5.9422,5.9073,5.9079,5.9084,5.9331,0,5.8164,5.8388,5.8372,5.8583,5.8685,5.8623,5.8735,5.8789,5.8802,5.8891,5.8905,5.9007,5.8923,5.8955,5.9043,5.9061,5.9197,5.9044,5.9171,5.9175,5.9154,5.9465,5.9514,5.9745,5.9363,5.9369,5.9373,0,5.8481,5.8557,5.8779,5.883,5.8873,5.8974,5.906,5.9146,5.9206,5.9209,5.9268,5.9235,5.9365,5.9252,5.9429,5.9325,5.9377,5.9394,5.9402,5.9412,5.9285,5.9481,5.9819,5.9853,5.9423,5.9419,5.9415,0,5.8694,5.8853,5.9005,5.9042,5.9107,5.9179,5.9209,5.9262,5.932,5.9396,5.9433,5.9524,5.9573,5.9643,5.9635,5.9554,5.9815,5.9702,5.982,5.982,5.9876,5.9872,6.0225,5.9913,5.9912,5.9912,5.9911,0,5.8969,5.9107,5.9102,5.9196,5.9347,5.9327,5.9478,5.95,5.9548,5.9644,5.9596,5.9687,5.9672,5.9764,5.9759,5.9905,5.9928,5.9933,5.993,5.9937,5.9936,5.9968,5.9951,5.9921,5.9919,5.9917,5.9916,0,5.9233,5.9236,5.9397,5.9445,5.946,5.9569,5.961,5.9698,5.9706,5.9829,5.9856,5.987,5.9975,5.9975,6.0095,6.0091,6.027,6.025,6.025,6.0245,6.0362,6.035,6.0746,6.0796,6.0454,6.0457,6.046,0,5.9407,5.9511,5.957,5.963,5.9665,5.9764,5.9823,5.9808,5.9871,5.9946,6.0025,6.0125,6.0205,6.0375,6.0396,6.0487,6.0467,6.0599,6.048,6.0483,6.0466,6.0459,6.0469,6.0622,6.0626,6.0629,6.0632,0,5.9716,5.9712,5.9799,5.9887,5.9958,6.0026,6.0089,6.0142,6.0133,6.0207,6.0313,6.0375,6.0497,6.0596,6.0684,6.0715,6.0672,6.0669,6.0701,6.0708,6.0702,6.0704,6.0311,6.066,6.0657,6.0655,6.0653,6.0652,5.9939,6.0028,6.0082,6.018,6.0226,6.0285,6.037,6.0389,6.0477,6.0574,6.056,6.0679,6.0734,6.0847,6.0886,6.0978,6.0931,6.0978,6.0989,6.1,6.1012,6.069,6.0994,6.0993,6.0993,6.0992,6.0991,0,6.0243,6.0275,6.0366,6.0454,6.0531,6.0484,6.0551,6.0618,6.0723,6.0779,6.0857,6.0979,6.1075,6.1103,6.1196,6.1264,6.1246,6.1288,6.1282,6.1289,6.105,6.1012,6.1301,6.1301,6.1301,6.1301,6.1301,6.13,6.0411,6.0557,6.056,6.0728,6.0759,6.0874,6.0916,6.097,6.1014,6.1152,6.1231,6.1249,6.1293,6.1388,6.1474,6.148,6.1515,6.1565,6.1563,6.1338,6.1307,6.1277,6.1241,6.1574,6.1574,6.1794,6.1796,6.1798]},{"header":{"parameterUnit":"m.s-1","parameterCategory":1,"la1":30.2991,"la2":30.254,"lo1":-89.0895,"lo2":-89.0444,"dy":0.0017,"dx":0.0017,"nx":28,"ny":28,"refTime":"2025-07-09T03:00:00:Z","depth":0,"parameterNumber":3,"parameterNumberName":"V-component_of_WINDS"},"data":[0,0,0,0,0,0,0,0,0,0,0,0,0,0,0,0,0,0,0,0,0,0,0,0,0,0,0,0,0,0,0,0,0,0,0,0,0,0,0,0,0,0,0,0,0,0,0,0,0,0,0,0,0,0,0,0,0,0,0.3123,0.3123,0,0.3185,0.3186,0.3186,0.3198,0.3198,0.3197,0.3197,0.3264,0.3266,0.3269,0,0,0,0,0,0,0,0,0,0,0,0,0,0.3015,0.3017,0.3122,0.3123,0.3124,0.3185,0.3186,0.3187,0.3198,0.3198,0.3197,0.3196,0.3263,0.3266,0.3269,0,0,0,0,0,0,0,0,0,0,0,0,0,0.3068,0.3018,0.3122,0.3137,0.3139,0.3185,0.3186,0.3187,0.3198,0.3198,0.3197,0.3196,0.3263,0.3266,0.3269,0.3306,0,0,0.328,0.3281,0,0,0,0,0,0,0,0,0.3065,0.3072,0.3134,0.3136,0.3138,0.3183,0.3173,0.3227,0.3199,0.3176,0.3197,0.3196,0.3238,0.3243,0.3257,0.3309,0.3312,0.328,0.3282,0.3283,0.3284,0,0,0,0,0,0,0,0.3062,0.307,0.3147,0.3135,0.3138,0.3141,0.3148,0.3183,0.3211,0.3178,0.3179,0.3186,0.3239,0.3254,0.3259,0.3313,0.328,0.3283,0.3285,0.3286,0.3397,0.3398,0,0,0,0,0,0,0.3055,0.3067,0.3145,0.3149,0.3099,0.3144,0.3151,0.3169,0.321,0.3216,0.3187,0.3186,0.3248,0.3255,0.3261,0.3306,0.3283,0.3287,0.3289,0.3396,0.3397,0.3398,0,0,0,0,0,0,0.3053,0.3062,0.3143,0.3108,0.3119,0.3146,0.3167,0.3171,0.3186,0.3217,0.3222,0.3196,0.3248,0.3256,0.3294,0.3308,0.3288,0.3291,0.3395,0.3396,0.3397,0.3396,0,0,0,0,0,0,0.305,0.3061,0.3075,0.3108,0.312,0.3174,0.3168,0.3173,0.3191,0.3191,0.3227,0.3232,0.3248,0.3289,0.3297,0.3313,0.3294,0.3394,0.3395,0.3397,0.3395,0.3397,0.3399,0,0,0,0,0,0.3046,0.3073,0.3075,0.3085,0.3138,0.3175,0.3182,0.3198,0.3192,0.3207,0.3226,0.3231,0.3305,0.3293,0.3302,0.3319,0.3393,0.3395,0.3397,0.3394,0.3397,0.3399,0,0,0,0,0,0,0.3042,0.3078,0.3081,0.312,0.3144,0.3177,0.3196,0.3201,0.3228,0.3228,0.3247,0.3255,0.3292,0.3309,0.3295,0.3356,0.3349,0.3353,0.3343,0.3346,0.3348,0.3344,0.3297,0,0,0,0,0,0.3045,0.3071,0.3102,0.3133,0.3145,0.3168,0.3185,0.3195,0.3221,0.3232,0.3255,0.3281,0.331,0.3329,0.3358,0.3397,0.3405,0.3414,0.3416,0.3417,0.3421,0.3443,0.3446,0.3404,0.3404,0.3404,0,0,0.3053,0.3076,0.3092,0.3133,0.3153,0.318,0.3177,0.3206,0.3226,0.3237,0.3274,0.3291,0.3322,0.336,0.3379,0.3376,0.3434,0.342,0.3421,0.3424,0.3445,0.3449,0.3452,0.3406,0.3406,0.3405,0,0,0.3082,0.3101,0.3129,0.3149,0.3178,0.3193,0.32,0.3232,0.3243,0.328,0.3288,0.3313,0.3363,0.3384,0.3402,0.3436,0.3442,0.3445,0.3456,0.3477,0.348,0.3483,0.3496,0.35,0.3448,0.3448,0.3448,0,0.3088,0.3128,0.3143,0.3171,0.3189,0.3198,0.3227,0.3245,0.3284,0.3296,0.3292,0.3354,0.3375,0.3419,0.3427,0.344,0.3449,0.3441,0.3478,0.3482,0.3485,0.3497,0.3501,0.3448,0.3448,0.3448,0.3448,0,0.3135,0.3163,0.3182,0.3216,0.3236,0.3265,0.3284,0.3303,0.331,0.3326,0.3363,0.3388,0.3422,0.3433,0.3442,0.3477,0.3475,0.3474,0.3468,0.3489,0.35,0.3505,0.3448,0.3448,0.3448,0.3448,0,0,0.3164,0.3205,0.3212,0.3228,0.326,0.3283,0.3311,0.3342,0.3358,0.3383,0.3408,0.3449,0.3448,0.3468,0.3479,0.3497,0.3522,0.3495,0.3496,0.3499,0.3564,0.3564,0.3569,0.3526,0.3527,0.3527,0.3561,0,0.3197,0.3247,0.326,0.3303,0.3329,0.3337,0.3362,0.3385,0.3399,0.3424,0.3441,0.3469,0.3466,0.3478,0.3496,0.3515,0.3536,0.3513,0.355,0.3551,0.3542,0.3575,0.3576,0.3607,0.3566,0.3566,0.3567,0,0.3242,0.3267,0.3312,0.334,0.3351,0.3373,0.3402,0.3425,0.3452,0.3461,0.3482,0.3491,0.3521,0.3512,0.3554,0.3538,0.3554,0.3565,0.3567,0.3572,0.3561,0.3581,0.3617,0.3621,0.3574,0.3574,0.3573,0,0.3259,0.3304,0.3336,0.3349,0.3383,0.3398,0.3413,0.3438,0.3456,0.3481,0.3493,0.3522,0.3539,0.3561,0.3578,0.3569,0.3619,0.3611,0.3628,0.3628,0.3639,0.3638,0.3678,0.3648,0.3648,0.3648,0.3648,0,0.3294,0.3322,0.3344,0.3364,0.3395,0.341,0.344,0.3455,0.3477,0.3501,0.351,0.3532,0.3552,0.3577,0.359,0.3623,0.363,0.3639,0.3642,0.3639,0.3638,0.365,0.3648,0.3649,0.3649,0.3648,0.3648,0,0.3319,0.3335,0.3371,0.3399,0.3407,0.3428,0.3453,0.3473,0.3487,0.3517,0.3524,0.3547,0.3577,0.3595,0.3633,0.3642,0.3678,0.3681,0.3669,0.3671,0.3687,0.3685,0.3737,0.3744,0.3708,0.3709,0.3709,0,0.3341,0.3362,0.3392,0.3407,0.3422,0.3447,0.3465,0.348,0.3498,0.3528,0.3545,0.3574,0.3599,0.3646,0.3666,0.3695,0.3699,0.3715,0.3703,0.3699,0.3699,0.3698,0.37,0.3717,0.3717,0.3717,0.3718,0,0.3378,0.3384,0.3409,0.3435,0.3455,0.3478,0.35,0.3512,0.3531,0.3551,0.358,0.3599,0.3637,0.3667,0.3697,0.3713,0.3719,0.3721,0.3726,0.3723,0.3716,0.372,0.3675,0.372,0.372,0.372,0.3719,0.3719,0.3403,0.3421,0.3444,0.3471,0.3489,0.3509,0.3528,0.3544,0.3569,0.36,0.3607,0.3638,0.3663,0.3704,0.372,0.3745,0.3743,0.3751,0.3753,0.3755,0.3756,0.3711,0.3751,0.3751,0.3751,0.3751,0.3751,0,0.344,0.3455,0.3479,0.3509,0.3529,0.3531,0.3555,0.3573,0.3599,0.3621,0.3645,0.3678,0.3707,0.3728,0.3757,0.3773,0.3776,0.378,0.378,0.3783,0.3756,0.3748,0.3777,0.3777,0.3777,0.3777,0.3777,0.3777,0.3462,0.3494,0.3503,0.3543,0.3558,0.3587,0.3601,0.3619,0.3637,0.3673,0.3696,0.3709,0.3732,0.3762,0.3788,0.3794,0.3804,0.3808,0.3814,0.3788,0.3785,0.3783,0.3776,0.381,0.381,0.3839,0.384,0.384]}]]